UPS1366 KBHM-KPNS

Flight info

Callsign UPS1366
Flight time N/A
Altitude 26000
Route GUMMP PENSI
Aircraft B748/H-SDE3FGHIM1M2RWXY/LB1

Departure

Time 2026-04-22 04:11
Airport Birmingham-Shuttlesworth International Airport (KBHM)

Arrival

Time N/A
Airport Pensacola International Airport (KPNS)
Time Latitude Longitude Altitude Speed Heading
2026-04-22 03:37 33.55404 -86.76747 626 ft 0 kts 181°
2026-04-22 03:48 33.55418 -86.76747 635 ft 2 kts 182°
2026-04-22 03:48 33.55434 -86.76743 637 ft 2 kts 220°
2026-04-22 03:48 33.55445 -86.76729 638 ft 2 kts 242°
2026-04-22 03:49 33.55450 -86.76713 640 ft 0 kts 272°
2026-04-22 03:54 33.55451 -86.76723 639 ft 3 kts 271°
2026-04-22 03:55 33.55453 -86.76758 642 ft 4 kts 280°
2026-04-22 03:55 33.55470 -86.76786 638 ft 4 kts 320°
2026-04-22 03:55 33.55481 -86.76789 636 ft 2 kts 351°
2026-04-22 03:55 33.55496 -86.76784 634 ft 2 kts 19°
2026-04-22 03:56 33.55508 -86.76775 629 ft 5 kts 29°
2026-04-22 03:56 33.55552 -86.76745 635 ft 9 kts 30°
2026-04-22 03:56 33.55612 -86.76697 638 ft 12 kts 38°
2026-04-22 03:56 33.55669 -86.76622 637 ft 13 kts 54°
2026-04-22 03:57 33.55728 -86.76521 635 ft 17 kts 56°
2026-04-22 03:57 33.55798 -86.76396 640 ft 19 kts 56°
2026-04-22 03:57 33.55874 -86.76260 642 ft 21 kts 56°
2026-04-22 03:57 33.55957 -86.76110 643 ft 20 kts 56°
2026-04-22 03:58 33.56029 -86.75981 647 ft 17 kts 56°
2026-04-22 03:58 33.56095 -86.75868 648 ft 16 kts 55°
2026-04-22 03:58 33.56151 -86.75772 651 ft 13 kts 55°
2026-04-22 03:58 33.56199 -86.75690 649 ft 12 kts 54°
2026-04-22 03:59 33.56249 -86.75607 653 ft 13 kts 54°
2026-04-22 03:59 33.56301 -86.75521 652 ft 13 kts 54°
2026-04-22 03:59 33.56353 -86.75435 653 ft 13 kts 54°
2026-04-22 03:59 33.56409 -86.75340 650 ft 16 kts 54°
2026-04-22 04:00 33.56476 -86.75227 653 ft 17 kts 54°
2026-04-22 04:00 33.56548 -86.75109 655 ft 17 kts 54°
2026-04-22 04:00 33.56594 -86.74987 654 ft 16 kts 80°
2026-04-22 04:00 33.56612 -86.74863 656 ft 15 kts 80°
2026-04-22 04:01 33.56639 -86.74790 660 ft 10 kts 56°
2026-04-22 04:01 33.56693 -86.74697 659 ft 17 kts 55°
2026-04-22 04:01 33.56777 -86.74557 658 ft 22 kts 54°
2026-04-22 04:01 33.56868 -86.74409 657 ft 23 kts 53°
2026-04-22 04:02 33.56960 -86.74255 657 ft 23 kts 56°
2026-04-22 04:02 33.57050 -86.74093 655 ft 24 kts 56°
2026-04-22 04:02 33.57144 -86.73931 659 ft 23 kts 55°
2026-04-22 04:02 33.57231 -86.73839 662 ft 7 kts 358°
2026-04-22 04:03 33.57278 -86.73864 657 ft 10 kts 331°
2026-04-22 04:03 33.57329 -86.73912 659 ft 4 kts 298°
2026-04-22 04:03 33.57326 -86.73954 657 ft 9 kts 252°
2026-04-22 04:03 33.57310 -86.73988 659 ft 1 kts 235°
2026-04-22 04:04 33.57304 -86.73999 659 ft 2 kts 235°
2026-04-22 04:04 33.57290 -86.74022 658 ft 4 kts 235°
2026-04-22 04:04 33.57288 -86.74025 658 ft 0 kts 235°
2026-04-22 04:10 33.57183 -86.74205 659 ft 67 kts 235°
2026-04-22 04:10 33.56764 -86.74919 662 ft 138 kts 235°
2026-04-22 04:10 33.56133 -86.76035 759 ft 177 kts 236°
2026-04-22 04:11 33.55420 -86.77310 1148 ft 201 kts 237°
2026-04-22 04:11 33.54559 -86.78855 1345 ft 240 kts 237°
2026-04-22 04:11 33.53637 -86.80512 2472 ft 239 kts 237°
2026-04-22 04:11 33.52699 -86.82197 3747 ft 246 kts 237°
2026-04-22 04:12 33.51649 -86.83806 4940 ft 251 kts 218°
2026-04-22 04:12 33.50065 -86.84683 6094 ft 257 kts 189°
2026-04-22 04:12 33.48274 -86.84507 7194 ft 264 kts 160°
2026-04-22 04:12 33.46666 -86.83412 8228 ft 270 kts 146°
2026-04-22 04:13 33.45099 -86.82128 9228 ft 274 kts 149°
2026-04-22 04:13 33.43402 -86.81055 10196 ft 278 kts 157°
2026-04-22 04:13 33.41600 -86.80161 11137 ft 282 kts 159°
2026-04-22 04:13 33.39802 -86.79247 12005 ft 286 kts 156°
2026-04-22 04:14 33.37977 -86.78245 12860 ft 290 kts 156°
2026-04-22 04:14 33.36127 -86.77223 13692 ft 294 kts 156°
2026-04-22 04:14 33.34244 -86.76206 14499 ft 297 kts 156°
2026-04-22 04:14 33.32316 -86.75173 15058 ft 312 kts 156°
2026-04-22 04:15 33.30304 -86.74087 15418 ft 331 kts 156°
2026-04-22 04:15 33.28134 -86.72914 15780 ft 351 kts 156°
2026-04-22 04:15 33.25845 -86.71677 16305 ft 366 kts 156°
2026-04-22 04:15 33.23521 -86.70425 17108 ft 373 kts 156°
2026-04-22 04:16 33.21132 -86.69138 17950 ft 378 kts 156°
2026-04-22 04:16 33.16256 -86.66514 19594 ft 388 kts 156°
2026-04-22 04:16 33.13786 -86.65185 20341 ft 395 kts 156°
2026-04-22 04:17 33.11261 -86.63828 21107 ft 400 kts 156°
2026-04-22 04:17 33.08631 -86.62677 21881 ft 403 kts 169°
2026-04-22 04:17 33.05864 -86.62401 22673 ft 404 kts 185°
2026-04-22 04:17 33.03091 -86.62975 23437 ft 405 kts 195°
2026-04-22 04:18 33.00335 -86.63900 23827 ft 417 kts 197°
2026-04-22 04:18 32.97526 -86.64875 24067 ft 432 kts 195°
2026-04-22 04:18 32.94545 -86.65729 24340 ft 446 kts 193°
2026-04-22 04:18 32.91467 -86.66548 24615 ft 458 kts 193°
2026-04-22 04:19 32.88318 -86.67471 24890 ft 470 kts 195°
2026-04-22 04:19 32.85137 -86.68450 25162 ft 482 kts 195°
2026-04-22 04:19 32.81840 -86.69425 25435 ft 492 kts 194°
2026-04-22 04:19 32.78468 -86.70387 25706 ft 503 kts 194°
2026-04-22 04:20 32.75070 -86.71371 25967 ft 508 kts 194°
2026-04-22 04:20 32.71615 -86.72393 26004 ft 511 kts 194°
2026-04-22 04:20 32.68168 -86.73409 26008 ft 509 kts 194°
2026-04-22 04:20 32.64747 -86.74401 26010 ft 509 kts 194°
2026-04-22 04:21 32.61287 -86.75403 26010 ft 509 kts 194°
2026-04-22 04:21 32.57844 -86.76409 26011 ft 509 kts 194°
2026-04-22 04:21 32.54442 -86.77404 26011 ft 509 kts 194°
2026-04-22 04:21 32.50993 -86.78407 26011 ft 509 kts 194°
2026-04-22 04:22 32.47545 -86.79406 26011 ft 509 kts 194°
2026-04-22 04:22 32.44094 -86.80408 26011 ft 509 kts 194°
2026-04-22 04:22 32.40699 -86.81395 26011 ft 508 kts 194°
2026-04-22 04:22 32.37254 -86.82394 26011 ft 508 kts 194°
2026-04-22 04:23 32.33815 -86.83390 26011 ft 508 kts 194°
2026-04-22 04:23 32.30370 -86.84387 26011 ft 508 kts 194°
2026-04-22 04:23 32.26928 -86.85383 26012 ft 508 kts 194°
2026-04-22 04:23 32.23519 -86.86369 26012 ft 509 kts 194°
2026-04-22 04:24 32.20070 -86.87365 26011 ft 509 kts 194°
2026-04-22 04:24 32.16622 -86.88360 26012 ft 509 kts 194°
2026-04-22 04:24 32.13204 -86.89346 26010 ft 508 kts 194°
2026-04-22 04:24 32.09767 -86.90336 26006 ft 498 kts 194°
2026-04-22 04:25 32.06466 -86.91286 25989 ft 474 kts 194°
2026-04-22 04:25 32.03395 -86.92170 25988 ft 452 kts 194°
2026-04-22 04:25 32.00387 -86.93035 25987 ft 435 kts 194°
2026-04-22 04:25 31.97439 -86.93883 25988 ft 438 kts 194°
2026-04-22 04:26 31.94510 -86.94725 25994 ft 436 kts 194°
2026-04-22 04:26 31.91544 -86.95575 25994 ft 437 kts 194°
2026-04-22 04:26 31.88576 -86.96426 25992 ft 437 kts 194°
2026-04-22 04:26 31.85656 -86.97264 25994 ft 437 kts 194°
2026-04-22 04:27 31.82680 -86.98116 25992 ft 437 kts 194°
2026-04-22 04:27 31.79723 -86.98962 25994 ft 437 kts 194°
2026-04-22 04:27 31.76801 -86.99798 25992 ft 437 kts 194°
2026-04-22 04:27 31.73837 -87.00645 25997 ft 436 kts 194°
2026-04-22 04:28 31.70882 -87.01490 25995 ft 436 kts 194°
2026-04-22 04:28 31.67923 -87.02334 25867 ft 433 kts 194°
2026-04-22 04:28 31.65022 -87.03162 25235 ft 433 kts 194°
2026-04-22 04:28 31.62079 -87.04001 24359 ft 436 kts 194°
2026-04-22 04:29 31.60109 -87.04563 23753 ft 438 kts 194°
2026-04-22 04:29 31.57122 -87.05413 22824 ft 440 kts 194°
2026-04-22 04:29 31.54165 -87.06254 22022 ft 439 kts 194°
2026-04-22 04:29 31.51195 -87.07099 21251 ft 436 kts 194°
2026-04-22 04:30 31.48250 -87.07936 20485 ft 433 kts 194°
2026-04-22 04:30 31.45321 -87.08768 19721 ft 430 kts 194°
2026-04-22 04:30 31.42453 -87.09583 18964 ft 427 kts 194°
2026-04-22 04:30 31.39558 -87.10404 18216 ft 423 kts 194°
2026-04-22 04:31 31.36701 -87.11214 17462 ft 419 kts 194°
2026-04-22 04:31 31.33906 -87.12006 16730 ft 416 kts 194°
2026-04-22 04:31 31.31096 -87.12802 15985 ft 412 kts 194°